Time,TemperatureF,DewpointF,PressureIn,WindDirection,WindDirectionDegrees,WindSpeedMPH,WindSpeedGustMPH,Humidity,HourlyPrecipIn,Conditions,Clouds,dailyrainin,SoftwareType,DateUTC
2013-09-19 00:00:00,51.0,-99.9,-100.00,NW,313,0.0,5.0,-999,-99.99,,,-99.99,,2013-09-19 07:00:00,
2013-09-19 00:52:00,51.0,-99.9,-100.00,NW,313,0.0,5.0,-999,-99.99,,,-99.99,,2013-09-19 07:52:00,
2013-09-19 01:52:00,47.0,-99.9,-100.00,SSE,150,5.0,5.0,-999,-99.99,,,-99.99,,2013-09-19 08:52:00,
2013-09-19 07:42:00,43.0,-99.9,-100.00,West,267,6.0,6.0,-999,-99.99,,,-99.99,,2013-09-19 14:42:00,
2013-09-19 07:52:00,43.0,-99.9,-100.00,West,267,6.0,6.0,-999,-99.99,,,-99.99,,2013-09-19 14:52:00,
2013-09-19 08:22:00,51.0,-99.9,-100.00,NW,322,0.0,0.0,-999,-99.99,,,-99.99,,2013-09-19 15:22:00,
2013-09-19 08:30:00,60.0,-99.9,-100.00,NW,322,0.0,0.0,-999,-99.99,,,-99.99,,2013-09-19 15:30:00,
2013-09-19 08:33:00,51.0,-99.9,-100.00,NW,322,0.0,0.0,-999,-99.99,,,-99.99,,2013-09-19 15:33:00,
2013-09-19 09:00:00,71.0,-99.9,-100.00,NW,322,0.0,0.0,-999,-99.99,,,-99.99,,2013-09-19 16:00:00,
2013-09-19 09:24:00,60.0,-99.9,-100.00,NW,322,0.0,0.0,-999,-99.99,,,-99.99,,2013-09-19 16:24:00,
2013-09-19 09:53:00,71.0,-99.9,-100.00,NW,322,0.0,0.0,-999,-99.99,,,-99.99,,2013-09-19 16:53:00,
2013-09-19 12:12:00,81.0,-99.9,-100.00,WNW,294,15.0,15.0,-999,-99.99,,,-99.99,,2013-09-19 19:12:00,
2013-09-19 12:22:00,80.0,-99.9,-100.00,WNW,294,15.0,15.0,-999,-99.99,,,-99.99,,2013-09-19 19:22:00,
2013-09-19 12:42:00,83.0,-99.9,-100.00,NW,325,13.0,13.0,-999,-99.99,,,-99.99,,2013-09-19 19:42:00,
2013-09-19 12:52:00,83.0,-99.9,-100.00,NW,324,12.0,12.0,-999,-99.99,,,-99.99,,2013-09-19 19:52:00,
2013-09-19 13:12:00,81.0,-99.9,-100.00,NW,315,19.0,19.0,-999,-99.99,,,-99.99,,2013-09-19 20:12:00,
2013-09-19 15:14:00,85.0,-99.9,-100.00,NNW,327,13.0,13.0,-999,-99.99,,,-99.99,,2013-09-19 22:14:00,
2013-09-19 15:20:00,83.0,-99.9,-100.00,North,351,12.0,12.0,-999,-99.99,,,-99.99,,2013-09-19 22:20:00,
2013-09-19 15:24:00,85.0,-99.9,-100.00,NNW,327,13.0,13.0,-999,-99.99,,,-99.99,,2013-09-19 22:24:00,
2013-09-19 15:43:00,84.0,-99.9,-100.00,North,351,12.0,12.0,-999,-99.99,,,-99.99,,2013-09-19 22:43:00,
2013-09-19 15:53:00,84.0,-99.9,-100.00,North,351,12.0,12.0,-999,-99.99,,,-99.99,,2013-09-19 22:53:00,
2013-09-19 16:10:00,84.0,-99.9,-100.00,NW,318,12.0,12.0,-999,-99.99,,,-99.99,,2013-09-19 23:10:00,
2013-09-19 16:12:00,83.0,-99.9,-100.00,North,351,12.0,12.0,-999,-99.99,,,-99.99,,2013-09-19 23:12:00,
2013-09-19 16:43:00,86.0,-99.9,-100.00,North,351,12.0,12.0,-999,-99.99,,,-99.99,,2013-09-19 23:43:00,
2013-09-19 16:50:00,84.0,-99.9,-100.00,West,281,7.0,7.0,-999,-99.99,,,-99.99,,2013-09-19 23:50:00,
2013-09-19 16:53:00,84.0,-99.9,-100.00,NW,318,12.0,12.0,-999,-99.99,,,-99.99,,2013-09-19 23:53:00,
2013-09-19 17:02:00,84.0,-99.9,-100.00,NW,318,12.0,12.0,-999,-99.99,,,-99.99,,2013-09-20 00:02:00,
2013-09-19 17:42:00,84.0,-99.9,-100.00,West,281,7.0,7.0,-999,-99.99,,,-99.99,,2013-09-20 00:42:00,
2013-09-19 17:50:00,83.0,-99.9,-100.00,East,96,7.0,7.0,-999,-99.99,,,-99.99,,2013-09-20 00:50:00,
2013-09-19 18:22:00,83.0,-99.9,-100.00,NE,36,8.0,8.0,-999,-99.99,,,-99.99,,2013-09-20 01:22:00,
2013-09-19 18:42:00,83.0,-99.9,-100.00,East,96,7.0,7.0,-999,-99.99,,,-99.99,,2013-09-20 01:42:00,
2013-09-19 19:12:00,76.0,-99.9,-100.00,ESE,115,13.0,13.0,-999,-99.99,,,-99.99,,2013-09-20 02:12:00,
2013-09-19 19:23:00,73.0,-99.9,-100.00,ESE,111,12.0,16.0,-999,-99.99,,,-99.99,,2013-09-20 02:23:00,
2013-09-19 19:32:00,73.0,-99.9,-100.00,ESE,111,12.0,16.0,-999,-99.99,,,-99.99,,2013-09-20 02:32:00,
2013-09-19 19:43:00,73.0,-99.9,-100.00,ESE,111,12.0,16.0,-999,-99.99,,,-99.99,,2013-09-20 02:43:00,
2013-09-19 21:20:00,61.0,-99.9,-100.00,ESE,102,2.0,6.0,-999,-99.99,,,-99.99,,2013-09-20 04:20:00,
2013-09-19 21:54:00,62.0,-99.9,-100.00,East,98,2.0,5.0,-999,-99.99,,,-99.99,,2013-09-20 04:54:00,
2013-09-19 22:13:00,61.0,-99.9,-100.00,ESE,102,2.0,6.0,-999,-99.99,,,-99.99,,2013-09-20 05:13:00,
2013-09-19 23:10:00,58.0,-99.9,-100.00,SSE,150,1.0,4.0,-999,-99.99,,,-99.99,,2013-09-20 06:10:00,
2013-09-19 23:43:00,58.0,-99.9,-100.00,West,261,6.0,6.0,-999,-99.99,,,-99.99,,2013-09-20 06:43:00,
2013-09-19 23:52:00,58.0,-99.9,-100.00,SSE,150,1.0,4.0,-999,-99.99,,,-99.99,,2013-09-20 06:52:00,